{"data":{"norad_id":45441,"epoch":"2026-05-25T01:56:54.808224Z","epoch_age_seconds":67275,"freshness":"FRESH","line1":"1 45441U 20020T   26145.08118991 -.00000512  00000+0 -14798-2 0  9997","line2":"2 45441  87.8917  25.6543 0001896  80.8245 279.3098 13.11416774299638","mean_motion":13.11416774,"eccentricity":0.0001896,"inclination_deg":87.8917,"raan_deg":25.6543,"arg_perigee_deg":80.8245,"mean_anomaly_deg":279.3098,"bstar":-0.0014798,"rev_number":29963,"period_min":109.80490935828,"perigee_km":1216.2431911299,"apogee_km":1219.1235262099,"semimajor_km":7595.8203586699,"source":"CELESTRAK","updated_at":"2026-05-25T13:38:22.344453Z"}}